Wind_Speed
8 16 16 6 1 3 12 27 16 5 6 13 15 15 14 10 13 14 19 13 12 15 7 8 9 10 8 10 15 22 20 21 16 12 9 9 7 4 5 6 5 6 8 10
13 17 11 15 16 8 11 22 17 12 12 13 20 17 20 18 20 18 17 18 10 12 12 10 4 5 5 6 15 20 22 23 18 15 14 12 10 7 7 8 5 8 9 10
14 16 18 14 21 14 18 17 25 12 16 16 25 23 30 28 26 26 21 18 12 6 4 7 2 1 4 6 10 11 17 21 21 19 17 16 13 9 10 9 12 13 15 13
12 4 2 11 21 19 13 18 19 11 13 16 25 10 33 36 32 34 29 27 23 12 7 5 5 6 7 7 8 9 14 18 20 21 18 16 14 16 14 13 14 14 16 15
17 17 7 16 13 14 7 5 16 23 12 18 33 10 17 35 36 40 36 29 28 19 13 6 2 5 5 7 8 10 12 16 18 18 17 19 18 17 14 12 12 13 14 14
21 18 15 6 11 11 6 7 17 21 20 11 26 33 11 29 31 39 31 30 30 25 17 12 9 6 4 9 8 6 11 14 19 18 20 19 19 17 15 16 14 14 14 12
20 22 18 14 9 16 17 9 8 5 6 8 7 24 25 17 20 34 31 30 30 28 21 20 19 13 13 11 9 5 10 7 11 18 13 16 17 20 18 16 14 13 13 11
17 17 11 10 12 20 16 22 11 6 5 3 11 10 17 18 15 29 31 30 34 33 29 29 22 21 20 19 16 14 14 13 10 18 12 14 18 21 21 19 16 12 12 11
11 11 15 18 18 26 28 19 22 18 17 5 8 12 15 13 20 33 35 28 31 31 36 38 33 30 26 22 20 20 17 13 15 18 15 17 14 17 19 19 19 19 18 19
19 24 17 15 20 7 24 14 10 8 1 3 2 6 6 22 28 33 38 37 35 32 29 32 35 34 30 29 27 24 20 17 19 22 21 21 20 23 24 24 24 25 23 21
24 24 20 21 15 8 12 13 11 13 8 7 3 5 12 23 28 29 39 39 39 42 35 30 34 35 29 29 25 25 24 22 23 25 23 24 26 27 28 29 29 29 26 24
8 23 17 20 10 7 7 16 19 16 10 8 6 7 16 22 26 34 35 30 31 29 22 19 23 28 28 29 30 29 27 28 27 25 24 22 28 30 30 28 28 29 24 17
11 7 14 12 16 11 9 16 17 20 18 14 4 7 18 18 20 22 20 18 7 15 18 21 23 24 28 31 33 36 34 33 34 31 27 22 24 21 14 13 13 14 22 25
9 9 5 7 6 6 12 4 5 2 6 6 3 14 24 22 16 11 9 12 17 20 21 22 23 26 31 33 33 33 30 26 21 15 17 17 16 14 15 20 26 32 25 24
7 8 5 7 4 3 6 9 11 8 8 7 7 8 22 22 9 7 4 10 15 15 15 20 24 23 21 20 20 16 19 14 13 13 10 13 13 16 16 18 20 24 27 30
6 5 6 8 7 3 11 11 10 7 5 6 12 16 17 16 11 2 4 10 10 6 7 9 11 15 16 13 10 9 7 6 7 9 13 16 17 19 19 26 28 30 32 35
7 9 11 11 7 5 12 27 19 20 14 8 12 9 15 6 2 2 6 9 5 4 9 11 8 6 6 6 6 8 9 12 15 17 18 20 22 25 28 30 31 31 33 32
7 8 1 3 6 4 15 16 23 21 20 13 11 11 6 1 5 4 6 5 4 4 5 4 4 6 7 9 12 14 15 17 19 21 23 24 26 27 28 28 27 27 28 29
7 11 3 3 3 8 9 12 10 5 13 10 5 2 2 8 8 8 5 1 4 5 6 1 6 7 8 11 14 17 19 21 22 24 24 24 23 23 23 23 23 24 24 26
8 9 2 7 5 5 11 9 5 9 12 19 19 22 16 15 15 15 9 7 4 8 8 7 8 12 15 18 21 21 20 20 20 21 21 21 21 21 20 20 20 22 24 25
5 1 8 5 4 12 7 10 10 5 10 20 12 15 13 13 12 13 10 7 6 11 13 12 17 19 20 21 20 20 21 20 20 22 22 21 19 18 19 20 20 22 23 23
4 2 4 5 4 6 15 13 9 5 10 6 5 9 10 11 12 11 9 8 9 9 11 15 18 22 26 24 22 20 20 21 21 21 20 20 19 18 20 21 21 21 22 15
3 2 3 3 4 4 11 10 11 7 7 10 10 13 14 14 12 9 10 12 11 13 16 21 22 27 24 21 20 19 18 19 20 20 18 18 19 18 20 20 21 18 14 12
7 3 2 2 4 3 12 11 7 6 8 8 12 14 16 17 16 15 15 14 15 15 15 18 25 27 21 20 20 20 19 18 18 17 17 17 19 21 21 21 20 12 13 14
5 8 7 8 8 9 13 10 8 10 10 10 14 15 17 18 18 19 19 19 17 19 21 25 26 23 21 20 21 21 22 20 18 17 18 21 23 21 16 12 9 11 11 14
12 9 10 11 13 12 8 12 14 14 14 13 13 19 21 18 15 13 16 18 19 21 23 24 23 22 20 20 21 21 18 17 16 15 17 21 18 10 8 8 8 8 13 13
Wind_Direction
201 221 232 290 219 39 164 189 193 230 171 200 203 211 205 217 191 189 183 201 223 239 236 244 267 288 246 203 209 210 197 202 197 187 186 189 211 222 195 246 240 204 209 211
241 254 287 282 260 208 166 176 178 173 229 194 187 207 201 215 213 206 201 216 221 226 228 247 260 279 240 215 207 209 195 201 206 197 208 211 220 227 232 240 274 259 268 258
251 262 282 266 238 213 204 191 161 157 187 199 210 215 209 214 214 214 226 239 238 281 242 245 50 2 228 210 204 216 200 199 208 211 218 227 232 255 241 267 259 277 266 273
269 303 359 263 230 230 264 218 209 147 167 197 200 232 216 214 214 216 220 228 236 250 262 240 84 79 174 202 205 188 193 195 207 224 234 241 248 261 278 283 269 265 285 282
252 283 287 214 247 217 276 317 225 213 206 210 199 234 251 201 209 210 225 219 232 240 265 242 137 114 124 171 198 199 189 198 217 223 236 243 251 263 270 279 283 276 277 270
268 273 290 261 265 276 277 52 202 208 192 205 227 208 267 214 219 210 217 215 227 233 248 249 234 220 187 185 183 188 200 212 222 226 231 247 255 259 257 261 266 274 282 293
267 259 257 252 275 248 258 250 182 168 212 230 238 206 261 273 238 209 211 216 226 231 243 246 232 242 222 227 213 200 200 199 257 221 241 259 257 256 260 262 257 271 285 299
263 275 233 212 279 266 264 235 224 209 189 186 181 220 251 233 212 203 210 212 218 225 232 235 235 234 228 232 229 237 233 245 227 212 249 274 257 250 263 264 269 274 282 274
244 260 280 274 276 282 249 236 234 260 284 250 214 215 239 215 189 188 196 203 211 217 224 224 225 233 235 235 237 240 237 238 253 245 263 260 268 262 255 262 262 265 268 269
256 247 279 288 300 271 221 223 234 229 202 297 337 173 200 182 187 198 199 208 216 213 222 227 226 229 234 229 233 246 244 252 272 285 270 267 266 268 263 259 260 261 265 267
251 240 258 270 292 255 230 211 233 254 221 175 145 189 220 202 195 202 207 214 223 226 233 233 230 223 233 231 240 246 253 257 270 271 271 267 267 264 265 263 258 258 257 266
286 242 254 267 237 257 269 265 255 238 231 233 239 179 212 206 206 211 219 223 229 222 233 241 237 236 237 243 248 253 264 269 270 266 258 266 280 273 270 268 271 272 265 265
338 284 236 232 256 272 322 293 238 256 244 259 194 192 199 206 211 219 225 212 238 234 241 246 250 249 250 251 252 255 260 264 271 274 271 285 273 273 274 273 263 249 279 264
323 301 333 207 169 335 340 2 275 309 276 260 229 175 188 195 210 225 249 224 208 227 228 243 251 257 264 266 266 266 272 276 278 275 268 252 250 250 260 269 268 261 262 264
313 285 282 340 359 307 18 19 46 10 324 273 218 192 182 180 184 152 190 214 205 213 228 241 245 253 264 268 274 280 291 285 263 249 236 228 234 246 247 259 265 264 263 267
293 291 265 298 352 66 63 59 49 40 61 143 153 156 156 165 150 178 231 214 214 245 259 292 290 257 263 285 275 258 247 241 250 241 242 244 250 255 266 266 265 267 271 275
296 283 288 310 293 192 51 67 83 100 83 111 166 172 168 170 250 316 215 208 225 242 306 315 290 260 234 189 210 237 250 259 264 269 271 269 263 260 265 267 267 270 272 276
249 254 4 74 280 48 113 99 88 98 90 72 87 103 101 351 299 259 213 237 223 300 16 46 201 208 225 249 255 269 269 270 270 268 266 264 263 264 265 267 270 272 276 279
243 246 139 172 97 134 161 157 165 150 62 38 39 40 315 293 282 285 273 346 15 345 348 253 227 241 257 267 272 276 276 275 274 272 270 268 266 264 266 267 272 277 281 286
352 277 182 130 101 221 176 201 221 248 238 287 267 279 289 278 280 309 311 322 308 292 314 306 290 292 295 295 293 291 288 285 281 278 275 271 271 272 274 277 281 287 291 297
105 54 101 127 174 232 183 182 180 206 197 223 228 250 244 251 288 296 315 331 286 304 310 305 304 297 300 301 293 286 284 285 281 278 277 276 276 280 283 286 292 295 299 301
107 88 144 163 169 213 190 181 212 229 163 191 222 226 243 265 279 301 307 300 295 293 277 302 302 299 304 304 300 297 296 291 288 283 276 273 277 284 286 290 294 296 300 312
156 252 286 255 185 182 183 217 243 254 219 227 237 272 268 270 287 293 286 285 286 287 289 303 315 316 313 306 305 309 304 300 300 293 287 286 284 284 288 290 294 284 303 314
201 256 224 200 216 217 201 219 247 243 238 257 246 247 262 275 282 284 282 271 277 291 295 300 307 312 310 308 312 314 311 306 304 296 288 287 289 289 292 286 288 287 301 315
186 222 220 206 212 190 190 192 212 226 266 284 265 263 274 282 276 275 272 277 290 297 301 302 307 310 307 305 306 304 299 292 287 283 296 300 296 293 295 280 262 277 299 326
227 229 231 256 234 239 233 214 233 259 277 303 257 249 261 271 283 283 279 283 287 294 300 303 302 303 298 295 300 299 290 283 287 293 301 300 298 274 308 297 285 285 304 317
Height
3197 3196 3194 3193 3195 3194 3192 3199 3201 3204 3206 3206 3203 3203 3205 3207 3207 3207 3208 3207 3210 3213 3214 3216 3217 3215 3215 3216 3219 3222 3226 3229 3231 3233 3234 3236 3237 3237 3237 3238 3240 3239 3240 3241
3196 3193 3194 3193 3195 3194 3193 3195 3199 3200 3206 3207 3205 3207 3205 3205 3205 3205 3206 3207 3207 3210 3212 3213 3214 3214 3214 3215 3216 3219 3223 3227 3229 3231 3233 3234 3235 3235 3236 3236 3237 3238 3238 3238
3193 3190 3193 3191 3190 3191 3192 3191 3194 3196 3194 3203 3202 3202 3201 3200 3201 3203 3204 3206 3207 3208 3210 3212 3213 3213 3213 3214 3215 3217 3221 3225 3228 3229 3230 3232 3234 3235 3235 3236 3237 3237 3236 3235
3188 3189 3191 3189 3189 3190 3190 3192 3192 3190 3193 3198 3198 3197 3193 3195 3198 3200 3200 3201 3203 3206 3209 3211 3212 3212 3212 3213 3213 3215 3219 3223 3225 3226 3228 3230 3231 3232 3234 3235 3234 3233 3233 3232
3182 3185 3190 3189 3187 3188 3188 3184 3185 3189 3190 3194 3196 3196 3186 3189 3191 3192 3193 3195 3200 3203 3206 3209 3211 3211 3211 3212 3212 3214 3216 3219 3222 3224 3225 3226 3227 3228 3229 3230 3230 3228 3228 3229
3179 3181 3185 3186 3187 3185 3187 3184 3188 3191 3192 3193 3188 3193 3182 3182 3181 3186 3190 3193 3196 3199 3203 3207 3210 3211 3211 3211 3211 3213 3214 3216 3216 3219 3220 3222 3223 3225 3226 3225 3225 3225 3225 3226
3179 3176 3178 3181 3182 3184 3183 3184 3187 3194 3195 3189 3185 3193 3181 3180 3181 3184 3186 3189 3193 3197 3199 3202 3205 3207 3208 3208 3210 3212 3213 3213 3214 3217 3219 3218 3220 3221 3221 3222 3222 3222 3221 3222
3177 3175 3175 3178 3180 3180 3180 3181 3181 3184 3185 3183 3183 3180 3177 3176 3178 3181 3185 3186 3191 3193 3195 3199 3201 3204 3205 3205 3206 3208 3210 3212 3214 3217 3214 3214 3216 3217 3217 3217 3218 3218 3219 3218
3172 3172 3171 3173 3175 3177 3174 3175 3177 3176 3176 3176 3176 3175 3175 3174 3177 3180 3180 3184 3187 3189 3190 3193 3197 3199 3201 3203 3204 3205 3207 3211 3212 3213 3211 3212 3213 3213 3215 3215 3214 3213 3213 3212
3167 3168 3168 3168 3170 3165 3168 3173 3173 3173 3176 3175 3173 3173 3171 3173 3175 3177 3180 3181 3183 3185 3186 3188 3193 3196 3198 3200 3201 3202 3206 3208 3209 3209 3209 3210 3209 3210 3210 3210 3210 3209 3208 3207
3162 3163 3165 3165 3166 3167 3168 3168 3169 3169 3169 3170 3175 3175 3172 3174 3174 3174 3174 3178 3181 3184 3186 3189 3189 3191 3195 3196 3198 3200 3202 3204 3205 3205 3204 3204 3205 3204 3203 3203 3203 3203 3201 3201
3157 3157 3158 3159 3162 3164 3164 3164 3164 3163 3165 3164 3164 3170 3168 3171 3172 3171 3171 3176 3179 3182 3191 3191 3193 3193 3193 3195 3196 3197 3197 3197 3198 3198 3199 3198 3198 3197 3197 3197 3197 3197 3196 3193
3155 3154 3154 3156 3159 3159 3159 3158 3158 3157 3158 3159 3159 3166 3164 3170 3171 3171 3173 3177 3178 3186 3191 3192 3191 3191 3191 3192 3193 3195 3194 3195 3195 3194 3193 3191 3192 3191 3191 3192 3191 3192 3192 3190
3153 3154 3154 3154 3155 3156 3157 3155 3154 3153 3154 3153 3154 3157 3160 3164 3170 3171 3173 3173 3178 3183 3187 3190 3189 3188 3188 3188 3188 3190 3188 3187 3187 3186 3186 3186 3187 3188 3188 3189 3188 3187 3186 3184
3151 3152 3154 3154 3155 3152 3154 3153 3150 3149 3149 3150 3152 3154 3157 3164 3169 3170 3171 3174 3177 3180 3183 3184 3182 3181 3183 3182 3183 3183 3183 3183 3181 3181 3182 3183 3183 3185 3184 3184 3182 3182 3180 3178
3150 3150 3150 3153 3153 3153 3151 3151 3150 3149 3151 3152 3154 3156 3162 3166 3170 3171 3172 3173 3175 3178 3179 3178 3177 3178 3178 3180 3180 3180 3180 3182 3181 3181 3181 3180 3179 3179 3178 3178 3176 3175 3172 3169
3148 3148 3149 3150 3151 3151 3153 3155 3153 3152 3156 3157 3157 3157 3158 3164 3166 3167 3169 3172 3174 3173 3173 3173 3172 3173 3174 3175 3177 3178 3179 3179 3178 3178 3177 3175 3175 3174 3173 3172 3169 3166 3164 3161
3146 3147 3147 3149 3150 3152 3160 3157 3155 3153 3158 3161 3160 3160 3161 3163 3164 3165 3168 3170 3170 3170 3170 3170 3172 3173 3174 3176 3176 3176 3175 3174 3173 3172 3171 3170 3168 3166 3165 3163 3160 3158 3156 3153
3143 3144 3145 3147 3151 3158 3156 3154 3156 3156 3160 3162 3165 3163 3162 3164 3163 3162 3164 3165 3165 3164 3167 3170 3171 3172 3172 3172 3172 3171 3170 3168 3167 3165 3163 3162 3160 3158 3156 3154 3153 3151 3148 3144
3142 3142 3147 3147 3152 3156 3155 3152 3153 3153 3152 3159 3164 3161 3159 3158 3160 3161 3162 3164 3166 3165 3166 3166 3167 3168 3168 3167 3166 3164 3161 3160 3158 3156 3155 3153 3151 3150 3148 3146 3145 3142 3139 3137
3143 3143 3144 3147 3151 3153 3153 3151 3151 3152 3152 3149 3153 3156 3157 3157 3157 3158 3159 3159 3160 3161 3162 3164 3164 3163 3161 3159 3158 3156 3154 3152 3150 3148 3146 3144 3143 3142 3140 3138 3137 3135 3132 3130
3142 3144 3146 3148 3148 3149 3149 3150 3149 3149 3149 3150 3150 3153 3155 3154 3155 3155 3156 3157 3159 3160 3160 3160 3159 3157 3154 3152 3150 3149 3147 3145 3143 3141 3139 3138 3137 3136 3134 3132 3131 3128 3127 3124
3144 3145 3146 3147 3147 3147 3148 3147 3147 3146 3148 3149 3151 3153 3153 3153 3153 3154 3155 3156 3157 3157 3157 3154 3152 3150 3147 3146 3144 3143 3141 3139 3138 3136 3134 3133 3132 3130 3128 3126 3124 3123 3122 3119
3141 3143 3144 3146 3145 3146 3147 3147 3147 3147 3147 3149 3149 3149 3150 3151 3151 3152 3152 3153 3154 3153 3151 3149 3147 3145 3143 3141 3138 3137 3135 3133 3131 3130 3129 3127 3126 3124 3122 3120 3118 3118 3117 3115
3140 3142 3143 3144 3144 3145 3145 3146 3147 3147 3148 3147 3146 3146 3146 3146 3147 3148 3148 3148 3148 3148 3146 3144 3142 3139 3138 3136 3134 3131 3130 3128 3127 3125 3124 3122 3119 3117 3115 3114 3113 3114 3113 3109
3140 3140 3141 3141 3142 3144 3145 3145 3145 3145 3146 3146 3145 3144 3144 3143 3142 3142 3143 3143 3143 3143 3141 3139 3137 3136 3134 3131 3130 3127 3125 3123 3121 3120 3119 3116 3113 3112 3112 3112 3111 3110 3107 3104